Regional Weather Roundup
Issued by NWS

Home | Current Version | Previous Version | Graphics & Text | Print | Product List | Glossary Off
Versions: 1 2 3 4 5 6 7 8 9 10 11 12 13 14 15 16 17 18 19 20 21 22 23 24 25 26 27 28 29 30 31 32 33 34 35 36 37 38 39 40 41 42 43 44 45 46 47 48 49 50

000
ASUS43 KTOP 240108
RWRKS

WEATHER ROUNDUP FOR KANSAS
NATIONAL WEATHER SERVICE GOODLAND KS
800 PM CDT TUE SEP 23 2014

NOTE:  "FAIR" INDICATES FEW OR NO CLOUDS BELOW 12,000 FEET WITH NO
SIGNIFICANT WEATHER AND/OR OBSTRUCTIONS TO VISIBILITY.

KSZ001>006-013>018-027>032-041>047-240200-
NORTHWEST KANSAS

CITY           SKY/WX    TMP DP  RH WIND       PRES   REMARKS
GOODLAND       MOCLDY    68  60  75 CALM      30.03S
HILL CITY      PTCLDY    75  59  57 S12G22    29.97S
RUSSELL        CLOUDY    73  57  57 SE17G24   29.96F
$$

KSZ061>065-074>080-084>089-240200-
SOUTHWEST KANSAS

CITY           SKY/WX    TMP DP  RH WIND       PRES   REMARKS
DODGE CITY     LGT RAIN  70  64  81 SE12      29.99F
ELKHART          N/A     80  55  42 S7          N/A
GARDEN CITY    MOCLDY    74  61  63 E10       29.98R
GREAT BEND     CLOUDY    75  55  50 S16       30.01R
LIBERAL        CLOUDY    82  57  42 N16       30.01R
PRATT          CLOUDY    75  52  43 S16G23    30.03R
$$

KSZ066>073-081>083-090>101-240200-
SOUTHEAST KANSAS

CITY           SKY/WX    TMP DP  RH WIND       PRES   REMARKS
CHANUTE        PTCLDY    68  54  60 SE8       30.12F
COFFEYVILLE    CLEAR     67  55  65 SE7       30.12S
HUTCHINSON     PTCLDY    74  51  44 SE15      30.04R
MEDICINE LODGE   N/A     78  54  43 SE13G21   30.01R
NEWTON         PTCLDY    70  48  46 S16G22    30.08F
PARSONS        PTCLDY    67  54  63 E3        30.13S
WICHITA INTL   MOCLDY    72  52  49 SE16      30.06R
WICHITA JABRA  PTCLDY    70  52  52 SE13      30.07R
WICHITA MCCONL MOCLDY    71  51  50 SE15      30.07R
WINFIELD       MOCLDY    72  50  45 SE13      30.08S
$$

KSZ007>012-019>026-033>040-048>060-102>105-240200-
NORTHEAST KANSAS

CITY           SKY/WX    TMP DP  RH WIND       PRES   REMARKS
CONCORDIA      CLEAR     64  59  83 SE15G23   30.02S
EMPORIA        LGT RAIN  64  58  80 SE10      30.11R
LAWRENCE       CLOUDY    68  54  60 E6        30.14R
MANHATTAN      CLOUDY    66  58  75 SE8       30.08R
MARYSVILLE     CLOUDY    63  55  77 SE14      30.08R
OLATHE IND     LGT RAIN  66  53  63 SE9       30.14F
OLATHE EXE     CLOUDY    66  53  63 SE8       30.14F
SALINA         CLOUDY    69  58  67 SE12      30.03R
TOPEKA BILLARD LGT RAIN  67  59  75 SE10      30.11R
TOPEKA FORBES  TSTM      65  58  78 E5        30.11F
$$



USA.gov is the U.S. government's official web portal to all federal, state and local government web resources and services.